When you browse on this site, cookies collect data to enhance your experience and personalize the content and advertising you see.
Visit our Privacy Policy to learn more. By continuing to use the site, you agree to this use of cookies and data.
  • In Deutschland
  • Länderverzeichnis
  • Für 7 Tage
  • Wassertemperatur
  • Wetterkarte
  • Widgets
  • user-avatar
    Anmelden

    Stündliche Wetter Jewłach

    Heute, 22 August, Donnerstag

    Zeit Temperatur Niederschläge Wind Luftdruck Luftfeuchtigkeit
    00:00 +26°C° 0 mm 3 m/S 759 mmHg 36%
    01:00 +26°C° 0 mm 2 m/S 759 mmHg 38%
    02:00 +25°C° 0 mm 2 m/S 759 mmHg 40%
    03:00 +24°C° 0 mm 1 m/S 759 mmHg 42%
    04:00 +25°C° 0 mm 1 m/S 759 mmHg 42%
    05:00 +23°C° 0 mm 0 m/S 759 mmHg 41%
    06:00 +23°C° 0 mm 0 m/S 759 mmHg 41%
    07:00 +28°C° 0 mm 1 m/S 759 mmHg 36%
    08:00 +30°C° 0 mm 1 m/S 758 mmHg 31%
    09:00 +34°C° 0 mm 2 m/S 758 mmHg 26%
    10:00 +36°C° 0 mm 3 m/S 758 mmHg 22%
    11:00 +38°C° 0 mm 4 m/S 757 mmHg 18%
    12:00 +41°C° 0 mm 5 m/S 757 mmHg 15%
    13:00 +42°C° 0 mm 5 m/S 756 mmHg 13%
    14:00 +43°C° 0 mm 5 m/S 756 mmHg 12%
    15:00 +45°C° 0 mm 6 m/S 756 mmHg 11%
    16:00 +44°C° 0 mm 6 m/S 756 mmHg 12%
    17:00 +42°C° 0 mm 6 m/S 756 mmHg 13%
    18:00 +41°C° 0 mm 7 m/S 756 mmHg 14%
    19:00 +38°C° 0 mm 6 m/S 756 mmHg 18%
    20:00 +34°C° 0 mm 5 m/S 757 mmHg 23%
    21:00 +30°C° 0 mm 4 m/S 757 mmHg 27%
    22:00 +29°C° 0 mm 4 m/S 757 mmHg 30%
    23:00 +28°C° 0 mm 4 m/S 758 mmHg 33%

    Morgen, 23 August, Freitag

    Zeit Temperatur Niederschläge Wind Luftdruck Luftfeuchtigkeit
    00:00 +26°C° 0 mm 3 m/S 758 mmHg 36%
    01:00 +26°C° 0 mm 3 m/S 758 mmHg 39%
    02:00 +26°C° 0 mm 3 m/S 758 mmHg 41%
    03:00 +25°C° 0 mm 2 m/S 758 mmHg 44%
    04:00 +25°C° 0 mm 2 m/S 758 mmHg 44%
    05:00 +25°C° 0 mm 2 m/S 758 mmHg 43%
    06:00 +25°C° 0 mm 2 m/S 758 mmHg 43%
    07:00 +28°C° 0 mm 2 m/S 758 mmHg 37%
    08:00 +31°C° 0 mm 3 m/S 758 mmHg 31%
    09:00 +35°C° 0 mm 3 m/S 758 mmHg 25%
    10:00 +37°C° 0 mm 4 m/S 758 mmHg 22%
    11:00 +40°C° 0 mm 5 m/S 758 mmHg 19%
    12:00 +43°C° 0 mm 7 m/S 757 mmHg 16%
    13:00 +44°C° 0 mm 7 m/S 757 mmHg 15%
    14:00 +44°C° 0 mm 8 m/S 756 mmHg 14%
    15:00 +45°C° 0 mm 8 m/S 756 mmHg 14%
    16:00 +44°C° 0 mm 8 m/S 756 mmHg 14%
    17:00 +43°C° 0 mm 8 m/S 756 mmHg 14%
    18:00 +41°C° 0 mm 8 m/S 756 mmHg 14%
    19:00 +38°C° 0 mm 7 m/S 757 mmHg 17%
    20:00 +35°C° 0 mm 6 m/S 757 mmHg 21%
    21:00 +32°C° 0 mm 4 m/S 758 mmHg 24%
    22:00 +30°C° 0 mm 4 m/S 758 mmHg 28%
    23:00 +28°C° 0 mm 4 m/S 758 mmHg 32%

    übermorgen, 24 August, Samstag

    Zeit Temperatur Niederschläge Wind Luftdruck Luftfeuchtigkeit
    00:00 +27°C° 0 mm 3 m/S 758 mmHg 36%
    01:00 +27°C° 0 mm 3 m/S 758 mmHg 41%
    02:00 +26°C° 0 mm 2 m/S 758 mmHg 46%
    03:00 +25°C° 0 mm 2 m/S 758 mmHg 52%
    04:00 +25°C° 0 mm 2 m/S 758 mmHg 52%
    05:00 +26°C° 0 mm 1 m/S 758 mmHg 52%
    06:00 +26°C° 0 mm 1 m/S 758 mmHg 53%
    07:00 +29°C° 0 mm 1 m/S 758 mmHg 46%
    08:00 +31°C° 0 mm 1 m/S 758 mmHg 39%
    09:00 +34°C° 0 mm 1 m/S 758 mmHg 33%
    10:00 +37°C° 0 mm 2 m/S 758 mmHg 27%
    11:00 +41°C° 0 mm 4 m/S 757 mmHg 22%
    12:00 +43°C° 0 mm 5 m/S 757 mmHg 17%
    13:00 +45°C° 0 mm 6 m/S 757 mmHg 16%
    14:00 +45°C° 0 mm 6 m/S 757 mmHg 14%
    15:00 +46°C° 0 mm 7 m/S 756 mmHg 13%
    16:00 +45°C° 0 mm 7 m/S 756 mmHg 14%
    17:00 +44°C° 0 mm 7 m/S 756 mmHg 14%
    18:00 +41°C° 0 mm 8 m/S 757 mmHg 14%
    19:00 +39°C° 0 mm 7 m/S 757 mmHg 20%
    20:00 +35°C° 0 mm 6 m/S 758 mmHg 26%
    21:00 +32°C° 0 mm 6 m/S 759 mmHg 32%
    22:00 +30°C° 0 mm 4 m/S 759 mmHg 37%
    23:00 +28°C° 0 mm 3 m/S 759 mmHg 42%

    25 August, Sonntag

    Zeit Temperatur Niederschläge Wind Luftdruck Luftfeuchtigkeit
    00:00 +27°C° 0 mm 2 m/S 759 mmHg 47%
    01:00 +27°C° 0 mm 2 m/S 759 mmHg 48%
    02:00 +26°C° 0 mm 2 m/S 759 mmHg 50%
    03:00 +26°C° 0 mm 1 m/S 759 mmHg 52%
    04:00 +26°C° 0 mm 1 m/S 759 mmHg 51%
    05:00 +26°C° 0 mm 1 m/S 759 mmHg 50%
    06:00 +24°C° 0 mm 0 m/S 759 mmHg 49%
    07:00 +29°C° 0 mm 1 m/S 759 mmHg 43%
    08:00 +32°C° 0 mm 1 m/S 759 mmHg 36%
    09:00 +34°C° 0 mm 1 m/S 759 mmHg 30%
    10:00 +37°C° 0 mm 2 m/S 758 mmHg 25%
    11:00 +39°C° 0 mm 2 m/S 758 mmHg 21%
    12:00 +40°C° 0 mm 3 m/S 758 mmHg 16%
    13:00 +42°C° 0.1 mm 3 m/S 757 mmHg 16%
    14:00 +43°C° 0.1 mm 3 m/S 757 mmHg 15%
    15:00 +43°C° 0.1 mm 4 m/S 757 mmHg 14%
    16:00 +42°C° 0 mm 4 m/S 757 mmHg 15%
    17:00 +41°C° 0 mm 5 m/S 757 mmHg 16%
    18:00 +40°C° 0 mm 5 m/S 757 mmHg 18%
    19:00 +36°C° 0 mm 5 m/S 757 mmHg 21%
    20:00 +33°C° 0 mm 5 m/S 758 mmHg 25%
    21:00 +30°C° 0 mm 5 m/S 758 mmHg 29%
    22:00 +28°C° 0 mm 4 m/S 758 mmHg 32%
    23:00 +27°C° 0 mm 3 m/S 758 mmHg 35%

    26 August, Montag

    Zeit Temperatur Niederschläge Wind Luftdruck Luftfeuchtigkeit
    00:00 +26°C° 0 mm 2 m/S 759 mmHg 38%
    01:00 +25°C° 0 mm 2 m/S 758 mmHg 40%
    02:00 +25°C° 0 mm 1 m/S 758 mmHg 43%
    03:00 +24°C° 0 mm 1 m/S 758 mmHg 46%
    04:00 +22°C° 0.1 mm 0 m/S 758 mmHg 47%
    05:00 +23°C° 0.1 mm 0 m/S 759 mmHg 49%
    06:00 +23°C° 0.1 mm 0 m/S 759 mmHg 51%
    07:00 +27°C° 0.1 mm 1 m/S 759 mmHg 45%
    08:00 +29°C° 0.1 mm 1 m/S 759 mmHg 39%
    09:00 +31°C° 0.1 mm 2 m/S 759 mmHg 32%
    10:00 +34°C° 0.1 mm 2 m/S 758 mmHg 29%
    11:00 +34°C° 0.1 mm 1 m/S 758 mmHg 26%
    12:00 +36°C° 0.1 mm 1 m/S 758 mmHg 22%
    13:00 +37°C° 0.1 mm 2 m/S 757 mmHg 22%
    14:00 +38°C° 0.1 mm 2 m/S 757 mmHg 21%
    15:00 +39°C° 0.1 mm 3 m/S 757 mmHg 20%
    16:00 +38°C° 0 mm 3 m/S 757 mmHg 21%
    17:00 +37°C° 0 mm 4 m/S 758 mmHg 22%
    18:00 +36°C° 0 mm 5 m/S 758 mmHg 23%
    19:00 +34°C° 0 mm 4 m/S 759 mmHg 25%
    20:00 +32°C° 0 mm 4 m/S 759 mmHg 27%
    21:00 +30°C° 0 mm 3 m/S 760 mmHg 28%
    22:00 +29°C° 0.1 mm 3 m/S 760 mmHg 33%
    23:00 +28°C° 0.1 mm 2 m/S 760 mmHg 37%

    27 August, Dienstag

    Zeit Temperatur Niederschläge Wind Luftdruck Luftfeuchtigkeit
    00:00 +27°C° 0.1 mm 1 m/S 760 mmHg 42%
    01:00 +26°C° 0.1 mm 1 m/S 760 mmHg 44%
    02:00 +25°C° 0.1 mm 2 m/S 760 mmHg 47%
    03:00 +24°C° 0.1 mm 2 m/S 760 mmHg 50%
    04:00 +24°C° 0 mm 2 m/S 761 mmHg 50%
    05:00 +24°C° 0 mm 2 m/S 761 mmHg 50%
    06:00 +24°C° 0 mm 1 m/S 761 mmHg 50%
    07:00 +27°C° 0 mm 2 m/S 761 mmHg 42%
    08:00 +30°C° 0 mm 2 m/S 761 mmHg 34%
    09:00 +33°C° 0 mm 3 m/S 761 mmHg 26%
    10:00 +35°C° 0 mm 3 m/S 761 mmHg 24%
    11:00 +37°C° 0 mm 4 m/S 760 mmHg 22%
    12:00 +39°C° 0 mm 5 m/S 760 mmHg 20%
    13:00 +40°C° 0 mm 6 m/S 760 mmHg 19%
    14:00 +40°C° 0 mm 6 m/S 760 mmHg 19%
    15:00 +40°C° 0 mm 7 m/S 759 mmHg 19%
    16:00 +39°C° 0 mm 7 m/S 760 mmHg 20%
    17:00 +38°C° 0 mm 6 m/S 760 mmHg 21%
    18:00 +36°C° 0 mm 6 m/S 760 mmHg 22%
    19:00 +35°C° 0 mm 7 m/S 761 mmHg 24%
    20:00 +33°C° 0 mm 7 m/S 761 mmHg 27%
    21:00 +32°C° 0 mm 8 m/S 762 mmHg 29%
    22:00 +30°C° 0 mm 7 m/S 762 mmHg 31%
    23:00 +29°C° 0 mm 6 m/S 762 mmHg 33%
    Mehr zeigen